Location: American Medical Response
(33.3472°N, 96.5511°W)
Time: 06:08:09
(UTC+00:00)

SL-4 R/B - Pass Details

Date: 09 July 2022
Orbit: 425 x 653 km, 51.6° (Epoch: 15 August)

Event Time Altitude Azimuth Distance (km) Brightness Sun altitude
Rises 10:49:07 0° 319° (NW) 2,601 5.4 -7.2°
Reaches altitude 10° 10:51:18 10° 325° (NW) 1,753 4.6 -6.8°
Maximum altitude 10:55:10 47° 40° (NE) 733 3.3 -6.1°
Drops below altitude 10° 10:59:18 10° 115° (ESE) 1,886 5.2 -5.4°
Sets 11:01:43 0° 121° (ESE) 2,822 6.1 -4.9°
